Weather in Chaiyaphum

Thailand     15°48′06″N   102°02′07″E
temp.,
°C
wind,
m/s
gust,
m/s
humid.,
%
clouds,
%
prec.,
mm/h
press.,
hPa
HPBL,
m
26 january, tue
tue2601:00+25ene234369 0.0 101024
04:00+23ene3344100 0.0 101035
07:00+22ene465177 0.0 1012115
10:00+28ene56450 0.0 1014741
13:00+32ene55333 0.0 10101637
16:00+34e442724 0.0 10072114
19:00+28e333612 0.0 100824
22:00+25ene23410 0.0 101024
27 january, wed
wed2701:00+24ene45450 0.0 101093
04:00+20ene486521 0.0 1011182
07:00+18ene377711 0.0 1012155
10:00+26ene57512 0.0 1014701
13:00+32ene453315 0.0 10111352
16:00+33ene332790 0.0 10082055
19:00+27e233789 0.0 100924
22:00+25ene234312 0.0 101124
28 january, thu
thu2801:00+24ne34447 0.0 101139
04:00+23ene34490 0.0 101156
07:00+20ene48620 0.0 1014178
10:00+28ene68450 0.0 1015672
13:00+33ene66290 0.0 10131601
16:00+34ene67250 0.0 10092091
19:00+27e48360 0.0 1011143
22:00+25e715490 0.0 1014626
29 january, fri
fri2901:00+21ene613620 0.0 1015692
04:00+19ne5136817 0.0 1015725
07:00+18ne412748 0.0 1017717
10:00+24ene812500 0.0 10181034
13:00+30ene710360 0.0 10151556
16:00+31ene68330 0.0 10111801
19:00+25e34444 0.0 101279
22:00+22ene495311 0.0 1015199
30 january, sat
sat3001:00+20ene5116426 0.0 1015447
04:00+17ne4107345 0.0 1015364
07:00+16ne497734 0.0 1017288
10:00+24ene68510 0.0 1018826
13:00+30ene67340 0.0 10141456
16:00+31ene56300 0.0 10112047
19:00+25ne34420 0.0 101256
22:00+23ne34470 0.0 101444